Weather Roundup
Issued by NWS

Home | Current Version | Previous Version | Text Only | Print | Product List | Glossary On
Versions: 1 2 3 4 5 6 7 8 9 10 11 12 13 14 15 16 17 18 19 20 21 22 23 24 25 26 27 28 29 30 31 32 33 34 35 36 37 38 39 40 41 42 43 44 45 46 47 48 49 50
000
NZUS93 KARX 281610
HRRWXR

CURRENT HOURLY OBSERVATIONS ACROSS
MUCH OF THE UPPER MISSISSIPPI VALLEY
NATIONAL WEATHER SERVICE LA CROSSE WI
1000 AM CST SAT FEB 28 2015


...SOUTHEAST MINNESOTA...


CITY           SKY/WX    TMP DP  RH WIND       PRES   REMARKS
ROCHESTER      SUNNY      3  -3  76 S9        30.52F WCI -12
ROCHESTER/MAYO FAIR       7  -4  60 S8G16     30.53F WCI  -6
WINONA         SUNNY      9   0  66 E5        30.62F WCI   0
AUSTIN         SUNNY      0  -2  92 S7        30.52S WCI -13
ALBERT LEA     SUNNY      3   0  85 S7        30.50F WCI  -9
DODGE CENTER   MOSUNNY    3  -2  78 S14       30.50S WCI -15
PRESTON        SUNNY      2  -2  83 S10       30.55S WCI -14
OWATONNA       SUNNY      7   0  72 S13       30.50S WCI  -9
FARIBAULT      SUNNY      7  -2  66 S10       30.51F WCI  -8
$$

...ELSEWHERE IN MINNESOTA...


CITY           SKY/WX    TMP DP  RH WIND       PRES   REMARKS
MINNEAPOLIS    MOSUNNY   11  -1  58 S9        30.51F WCI  -2
INTNL FALLS    MOSUNNY   10  -1  61 S5        30.27S WCI   2
DULUTH         MOSUNNY    9   0  67 SW14      30.38F WCI  -7
RED WING       SUNNY      9  -2  61 SE6       30.56F WCI  -1
REDWOOD FALLS  SUNNY     12   3  67 S13       30.43F WCI  -3
MANKATO        SUNNY      7  -2  66 S12       30.49S WCI  -9
FAIRMONT       SUNNY      7   1  78 S13       30.46S WCI  -9
$$

...SOUTHWEST WISCONSIN...


CITY           SKY/WX    TMP DP  RH WIND       PRES   REMARKS
LA CROSSE      SUNNY      3  -5  69 S7        30.64F WCI  -9
PRAIRIE DU CHI SUNNY     -2 -11  64 CALM      30.66F
BOSCOBEL       SUNNY      3  -7  63 CALM      30.68F
LONE ROCK      SUNNY      1  -7  68 NE3       30.66F
PLATTEVILLE    SUNNY      0  -4  82 SE5       30.63F WCI -10
FORT MC COY    SUNNY     10  -3  56 S8        30.63S WCI  -3
CAMP DOUGLAS   SUNNY      7  -2  66 VRB3      30.62S
VIROQUA        FAIR       5  -4  66 S6        30.57F WCI  -5
WIS DELLS      SUNNY      7  -5  59 SW3       30.62F
$$

...ELSEWHERE IN WISCONSIN...


CITY           SKY/WX    TMP DP  RH WIND       PRES   REMARKS
MILWAUKEE      SUNNY      8  -4  58 SW8       30.70S WCI  -4
MADISON        MOSUNNY    6  -4  63 S8        30.65F WCI  -7
GREEN BAY      SUNNY      9   0  67 S8        30.65S WCI  -3
EAU CLAIRE     SUNNY      7  -2  66 S9        30.56F WCI  -7
BLACK RVR FLS  FAIR       6  -6  58 SW6       30.62R WCI  -4
MEDFORD        SUNNY      2  -2  81 S3        30.51F
WAUSAU         SUNNY      4  -2  76 S7        30.55F WCI  -8
WIS RAPIDS     SUNNY      6  -4  63 SW3       30.61S
MARSHFIELD     SUNNY      4  -3  73 CALM      30.55F
RICE LAKE      SUNNY      6  -1  73 S12       30.53F WCI -10
$$

...NORTHEAST IOWA...


CITY           SKY/WX    TMP DP  RH WIND       PRES   REMARKS
DECORAH        SUNNY      1  -6  71 S10       30.57F WCI -14
MASON CITY     SUNNY     -1  -7  75 S10       30.55R WCI -17
CHARLES CITY   SUNNY      1  -4  78 S14       30.57S WCI -17
OELWEIN        SUNNY      1  -4  78 SE12      30.60S WCI -15
$$

...ELSEWHERE IN IOWA...


CITY           SKY/WX    TMP DP  RH WIND       PRES   REMARKS
DES MOINES     MOSUNNY   13   1  59 S8        30.55F WCI   2
IOWA CITY      SUNNY      3  -3  76 SE6       30.66F WCI  -8
FORT DODGE     SUNNY     10   3  72 S8        30.52S WCI  -1
$$

...NORTHERN ILLINOIS...


CITY           SKY/WX    TMP DP  RH WIND       PRES   REMARKS
CHICAGO-OHARE  MOSUNNY   10  -1  61 SE7       30.70F WCI  -1
CHICAGO-MIDWAY MOSUNNY   14   1  56 S6        30.72F WCI   5
MOLINE         SUNNY      9  -2  61 SE10      30.67F WCI  -5
ROCKFORD       SUNNY      6  -3  66 VRB3      30.70F
PEORIA         PTSUNNY   17   2  51 SE8       30.67F WCI   7
$$

NOTE: "FAIR" INDICATES FEW OR NO CLOUDS BELOW 12,000 FEET WITH NO
SIGNIFICANT WEATHER AND/OR OBSTRUCTIONS TO VISIBILITY. WIND
SPEEDS ARE IN MILES-PER-HOUR.



USA.gov is the U.S. government's official web portal to all federal, state and local government web resources and services.